Time,TemperatureF,DewpointF,PressureIn,WindDirection,WindDirectionDegrees,WindSpeedMPH,WindSpeedGustMPH,Humidity,HourlyPrecipIn,Conditions,Clouds,dailyrainin,SoftwareType,DateUTC
2013-01-08 00:00:00,32.0,26.8,30.08,South,184,5.0,14.0,81,0.00,,---,0.00,VWS V14.01,2013-01-08 06:00:00,
2013-01-08 00:10:00,32.0,26.8,30.08,SSW,198,9.0,13.0,81,0.00,,---,0.00,VWS V14.01,2013-01-08 06:10:00,
2013-01-08 00:15:00,31.9,26.7,30.08,South,184,9.0,14.0,81,0.00,,---,0.00,VWS V14.01,2013-01-08 06:15:00,
2013-01-08 00:20:00,31.9,26.7,30.08,SSW,212,11.0,11.0,81,0.00,,---,0.00,VWS V14.01,2013-01-08 06:20:00,
2013-01-08 00:25:00,31.8,26.6,30.08,SSW,195,4.0,12.0,81,0.00,,---,0.00,VWS V14.01,2013-01-08 06:25:00,
2013-01-08 00:30:00,31.6,26.5,30.08,SSW,209,9.0,11.0,81,0.00,,---,0.00,VWS V14.01,2013-01-08 06:30:00,
2013-01-08 00:35:00,31.5,26.4,30.08,South,171,5.0,12.0,81,0.00,,---,0.00,VWS V14.01,2013-01-08 06:35:00,
2013-01-08 00:40:00,31.5,26.4,30.08,SSW,202,5.0,12.0,81,0.00,,---,0.00,VWS V14.01,2013-01-08 06:40:00,
2013-01-08 00:45:00,31.4,26.2,30.08,South,190,4.0,11.0,81,0.00,,---,0.00,VWS V14.01,2013-01-08 06:45:00,
2013-01-08 00:50:00,31.4,26.2,30.08,SW,215,6.0,12.0,81,0.00,,---,0.00,VWS V14.01,2013-01-08 06:50:00,
2013-01-08 01:00:00,31.4,26.2,30.08,SSW,211,7.0,14.0,81,0.00,,---,0.00,VWS V14.01,2013-01-08 07:00:00,
2013-01-08 01:10:00,31.4,26.2,30.09,SSW,192,6.0,14.0,81,0.00,,---,0.00,VWS V14.01,2013-01-08 07:10:00,
2013-01-08 01:15:00,31.4,26.2,30.08,South,190,6.0,13.0,81,0.00,,---,0.00,VWS V14.01,2013-01-08 07:15:00,
2013-01-08 01:20:00,31.3,26.2,30.08,South,183,3.0,9.0,81,0.00,,---,0.00,VWS V14.01,2013-01-08 07:20:00,
2013-01-08 01:25:00,31.2,26.1,30.09,South,188,5.0,9.0,81,0.00,,---,0.00,VWS V14.01,2013-01-08 07:25:00,
2013-01-08 01:35:00,31.3,26.2,30.08,South,190,4.0,7.0,81,0.00,,---,0.00,VWS V14.01,2013-01-08 07:35:00,
2013-01-08 01:40:00,31.4,26.2,30.08,SSW,192,4.0,11.0,81,0.00,,---,0.00,VWS V14.01,2013-01-08 07:40:00,
2013-01-08 01:45:00,31.5,26.4,30.08,South,175,5.0,12.0,81,0.00,,---,0.00,VWS V14.01,2013-01-08 07:45:00,
2013-01-08 01:50:00,31.5,26.4,30.08,South,191,4.0,9.0,81,0.00,,---,0.00,VWS V14.01,2013-01-08 07:50:00,
2013-01-08 01:55:00,31.6,26.5,30.08,SW,226,5.0,9.0,81,0.00,,---,0.00,VWS V14.01,2013-01-08 07:55:00,
2013-01-08 02:00:00,31.6,26.5,30.08,South,191,3.0,14.0,81,0.00,,---,0.00,VWS V14.01,2013-01-08 08:00:00,
2013-01-08 02:05:00,31.6,26.5,30.08,SSW,196,6.0,10.0,81,0.00,,---,0.00,VWS V14.01,2013-01-08 08:05:00,
2013-01-08 02:15:00,31.6,26.5,30.08,SSW,199,2.0,7.0,81,0.00,,---,0.00,VWS V14.01,2013-01-08 08:15:00,
2013-01-08 02:20:00,31.7,26.5,30.09,SSW,205,6.0,11.0,81,0.00,,---,0.00,VWS V14.01,2013-01-08 08:20:00,
2013-01-08 02:30:00,31.7,26.2,30.09,SSW,204,4.0,10.0,80,0.00,,---,0.00,VWS V14.01,2013-01-08 08:30:00,
2013-01-08 02:35:00,31.7,26.2,30.09,SW,219,4.0,9.0,80,0.00,,---,0.00,VWS V14.01,2013-01-08 08:35:00,
2013-01-08 02:40:00,31.8,26.4,30.09,SW,214,3.0,10.0,80,0.00,,---,0.00,VWS V14.01,2013-01-08 08:40:00,
2013-01-08 02:50:00,31.8,26.4,30.09,SSW,196,5.0,11.0,80,0.00,,---,0.00,VWS V14.01,2013-01-08 08:50:00,
2013-01-08 02:55:00,31.8,26.4,30.09,SSW,200,5.0,11.0,80,0.00,,---,0.00,VWS V14.01,2013-01-08 08:55:00,
2013-01-08 03:00:00,31.7,26.2,30.09,SW,220,3.0,7.0,80,0.00,,---,0.00,VWS V14.01,2013-01-08 09:00:00,
2013-01-08 03:05:00,31.7,26.2,30.09,SSW,202,6.0,10.0,80,0.00,,---,0.00,VWS V14.01,2013-01-08 09:05:00,
2013-01-08 03:10:00,31.7,25.9,30.08,SSW,195,5.0,6.0,79,0.00,,---,0.00,VWS V14.01,2013-01-08 09:10:00,
2013-01-08 03:20:00,31.6,25.9,30.09,SSW,208,5.0,5.0,79,0.00,,---,0.00,VWS V14.01,2013-01-08 09:20:00,
2013-01-08 03:30:00,31.5,25.8,30.09,SSW,206,2.0,5.0,79,0.00,,---,0.00,VWS V14.01,2013-01-08 09:30:00,
2013-01-08 03:35:00,31.4,25.6,30.08,South,188,3.0,5.0,79,0.00,,---,0.00,VWS V14.01,2013-01-08 09:35:00,
2013-01-08 03:40:00,31.3,25.6,30.08,South,184,4.0,9.0,79,0.00,,---,0.00,VWS V14.01,2013-01-08 09:40:00,
2013-01-08 03:45:00,31.2,25.5,30.08,South,178,4.0,4.0,79,0.00,,---,0.00,VWS V14.01,2013-01-08 09:45:00,
2013-01-08 03:50:00,31.0,25.3,30.08,SSW,201,1.0,5.0,79,0.00,,---,0.00,VWS V14.01,2013-01-08 09:50:00,
2013-01-08 03:55:00,30.9,25.2,30.08,SSW,202,2.0,5.0,79,0.00,,---,0.00,VWS V14.01,2013-01-08 09:55:00,
2013-01-08 04:00:00,30.7,25.0,30.08,SSW,202,3.0,6.0,79,0.00,,---,0.00,VWS V14.01,2013-01-08 10:00:00,
2013-01-08 04:05:00,30.6,25.2,30.08,SSW,207,1.0,5.0,80,0.00,,---,0.00,VWS V14.01,2013-01-08 10:05:00,
2013-01-08 04:10:00,30.5,25.1,30.08,SW,216,4.0,7.0,80,0.00,,---,0.00,VWS V14.01,2013-01-08 10:10:00,
2013-01-08 04:15:00,30.5,25.1,30.08,SSW,194,3.0,8.0,80,0.00,,---,0.00,VWS V14.01,2013-01-08 10:15:00,
2013-01-08 04:20:00,30.5,25.1,30.08,SSW,196,6.0,7.0,80,0.00,,---,0.00,VWS V14.01,2013-01-08 10:20:00,
2013-01-08 04:25:00,30.4,25.0,30.08,South,188,4.0,11.0,80,0.00,,---,0.00,VWS V14.01,2013-01-08 10:25:00,
2013-01-08 04:30:00,30.3,24.9,30.08,South,184,10.0,10.0,80,0.00,,---,0.00,VWS V14.01,2013-01-08 10:30:00,
2013-01-08 04:40:00,30.2,24.8,30.08,SSW,198,3.0,6.0,80,0.00,,---,0.00,VWS V14.01,2013-01-08 10:40:00,
2013-01-08 04:50:00,30.1,24.7,30.08,SSW,192,3.0,6.0,80,0.00,,---,0.00,VWS V14.01,2013-01-08 10:50:00,
2013-01-08 04:55:00,30.2,24.8,30.08,SSW,200,2.0,8.0,80,0.00,,---,0.00,VWS V14.01,2013-01-08 10:55:00,
2013-01-08 05:05:00,30.3,24.6,30.08,South,188,3.0,10.0,79,0.00,,---,0.00,VWS V14.01,2013-01-08 11:05:00,
2013-01-08 05:10:00,30.2,24.8,30.08,South,180,5.0,7.0,80,0.00,,---,0.00,VWS V14.01,2013-01-08 11:10:00,
2013-01-08 05:15:00,30.3,24.9,30.08,SSW,201,3.0,6.0,80,0.00,,---,0.00,VWS V14.01,2013-01-08 11:15:00,
2013-01-08 05:25:00,30.3,24.9,30.07,SSW,192,4.0,6.0,80,0.00,,---,0.00,VWS V14.01,2013-01-08 11:25:00,
2013-01-08 05:30:00,30.5,25.1,30.07,SSW,208,6.0,10.0,80,0.00,,---,0.00,VWS V14.01,2013-01-08 11:30:00,
2013-01-08 05:40:00,30.5,24.8,30.07,SSW,192,3.0,12.0,79,0.00,,---,0.00,VWS V14.01,2013-01-08 11:40:00,
2013-01-08 05:45:00,30.3,24.6,30.08,South,175,4.0,7.0,79,0.00,,---,0.00,VWS V14.01,2013-01-08 11:45:00,
2013-01-08 05:50:00,30.2,24.5,30.07,South,190,4.0,8.0,79,0.00,,---,0.00,VWS V14.01,2013-01-08 11:50:00,
2013-01-08 05:55:00,30.2,24.5,30.07,South,191,4.0,13.0,79,0.00,,---,0.00,VWS V14.01,2013-01-08 11:55:00,
2013-01-08 06:00:00,30.2,24.5,30.07,South,186,3.0,9.0,79,0.00,,---,0.00,VWS V14.01,2013-01-08 12:00:00,
2013-01-08 06:10:00,30.4,24.7,30.07,South,183,6.0,8.0,79,0.00,,---,0.00,VWS V14.01,2013-01-08 12:10:00,
2013-01-08 06:20:00,30.6,24.9,30.07,South,188,4.0,7.0,79,0.00,,---,0.00,VWS V14.01,2013-01-08 12:20:00,
2013-01-08 06:25:00,30.6,24.9,30.07,SSE,150,3.0,7.0,79,0.00,,---,0.00,VWS V14.01,2013-01-08 12:25:00,
2013-01-08 06:30:00,30.5,24.8,30.08,SSW,198,3.0,6.0,79,0.00,,---,0.00,VWS V14.01,2013-01-08 12:30:00,
2013-01-08 06:35:00,30.3,24.6,30.08,SSW,196,3.0,7.0,79,0.00,,---,0.00,VWS V14.01,2013-01-08 12:35:00,
2013-01-08 06:45:00,30.1,24.4,30.09,South,184,3.0,6.0,79,0.00,,---,0.00,VWS V14.01,2013-01-08 12:45:00,
2013-01-08 06:50:00,29.9,24.2,30.09,SSW,197,4.0,5.0,79,0.00,,---,0.00,VWS V14.01,2013-01-08 12:50:00,
2013-01-08 06:55:00,29.7,24.3,30.09,SSW,194,5.0,7.0,80,0.00,,---,0.00,VWS V14.01,2013-01-08 12:55:00,
2013-01-08 07:00:00,29.7,24.3,30.09,SSW,192,3.0,7.0,80,0.00,,---,0.00,VWS V14.01,2013-01-08 13:00:00,
2013-01-08 07:05:00,29.5,24.1,30.09,SSW,193,4.0,6.0,80,0.00,,---,0.00,VWS V14.01,2013-01-08 13:05:00,
2013-01-08 07:15:00,29.5,24.1,30.09,South,190,4.0,7.0,80,0.00,,---,0.00,VWS V14.01,2013-01-08 13:15:00,
2013-01-08 07:20:00,29.5,24.1,30.09,SSW,192,3.0,5.0,80,0.00,,---,0.00,VWS V14.01,2013-01-08 13:20:00,
2013-01-08 07:25:00,29.5,24.1,30.09,SSW,194,3.0,9.0,80,0.00,,---,0.00,VWS V14.01,2013-01-08 13:25:00,
2013-01-08 07:30:00,29.5,24.1,30.09,SSW,194,2.0,6.0,80,0.00,,---,0.00,VWS V14.01,2013-01-08 13:30:00,
2013-01-08 07:35:00,29.5,24.1,30.10,SSW,194,4.0,9.0,80,0.00,,---,0.00,VWS V14.01,2013-01-08 13:35:00,
2013-01-08 07:40:00,29.6,24.2,30.09,South,184,2.0,8.0,80,0.00,,---,0.00,VWS V14.01,2013-01-08 13:40:00,
2013-01-08 07:50:00,29.8,24.4,30.10,SSW,200,4.0,8.0,80,0.00,,---,0.00,VWS V14.01,2013-01-08 13:50:00,
2013-01-08 07:55:00,29.8,24.4,30.10,SSW,200,3.0,9.0,80,0.00,,---,0.00,VWS V14.01,2013-01-08 13:55:00,
2013-01-08 08:00:00,29.9,24.5,30.10,South,186,4.0,5.0,80,0.00,,---,0.00,VWS V14.01,2013-01-08 14:00:00,
2013-01-08 08:05:00,29.9,24.5,30.10,South,187,3.0,8.0,80,0.00,,---,0.00,VWS V14.01,2013-01-08 14:05:00,
2013-01-08 08:10:00,30.0,24.6,30.10,South,191,4.0,10.0,80,0.00,,---,0.00,VWS V14.01,2013-01-08 14:10:00,
2013-01-08 08:15:00,30.1,24.7,30.10,SSW,203,6.0,11.0,80,0.00,,---,0.00,VWS V14.01,2013-01-08 14:15:00,
2013-01-08 08:20:00,30.2,24.5,30.10,SSW,206,5.0,10.0,79,0.00,,---,0.00,VWS V14.01,2013-01-08 14:20:00,
2013-01-08 08:25:00,30.3,24.6,30.10,South,170,7.0,10.0,79,0.00,,---,0.00,VWS V14.01,2013-01-08 14:25:00,
2013-01-08 08:30:00,30.4,25.0,30.10,South,188,6.0,11.0,80,0.00,,---,0.00,VWS V14.01,2013-01-08 14:30:00,
2013-01-08 08:35:00,30.5,25.1,30.10,South,175,6.0,9.0,80,0.00,,---,0.00,VWS V14.01,2013-01-08 14:35:00,
2013-01-08 08:40:00,30.7,25.0,30.11,SSW,192,13.0,13.0,79,0.00,,---,0.00,VWS V14.01,2013-01-08 14:40:00,
2013-01-08 08:45:00,31.0,25.3,30.11,South,178,7.0,14.0,79,0.00,,---,0.00,VWS V14.01,2013-01-08 14:45:00,
2013-01-08 08:50:00,31.3,25.6,30.11,South,186,7.0,10.0,79,0.00,,---,0.00,VWS V14.01,2013-01-08 14:50:00,
2013-01-08 09:00:00,31.9,25.8,30.11,South,188,8.0,10.0,78,0.00,,---,0.00,VWS V14.01,2013-01-08 15:00:00,
2013-01-08 09:05:00,32.3,26.2,30.11,SSW,193,5.0,9.0,78,0.00,,---,0.00,VWS V14.01,2013-01-08 15:05:00,
2013-01-08 09:15:00,32.7,26.6,30.11,South,186,5.0,12.0,78,0.00,,---,0.00,VWS V14.01,2013-01-08 15:15:00,
2013-01-08 09:20:00,32.9,26.5,30.11,SSW,194,4.0,11.0,77,0.00,,---,0.00,VWS V14.01,2013-01-08 15:20:00,
2013-01-08 09:25:00,33.2,26.8,30.11,South,190,6.0,11.0,77,0.00,,---,0.00,VWS V14.01,2013-01-08 15:25:00,
2013-01-08 09:30:00,33.4,27.0,30.11,SSW,200,6.0,11.0,77,0.00,,---,0.00,VWS V14.01,2013-01-08 15:30:00,
2013-01-08 09:35:00,33.6,26.9,30.11,South,185,4.0,12.0,76,0.00,,---,0.00,VWS V14.01,2013-01-08 15:35:00,
2013-01-08 09:40:00,33.8,27.4,30.11,South,191,4.0,10.0,77,0.00,,---,0.00,VWS V14.01,2013-01-08 15:40:00,
2013-01-08 09:50:00,34.2,27.4,30.11,SSW,194,4.0,8.0,76,0.00,,---,0.00,VWS V14.01,2013-01-08 15:50:00,
2013-01-08 10:00:00,34.4,27.6,30.11,SSW,206,5.0,10.0,76,0.00,,---,0.00,VWS V14.01,2013-01-08 16:00:00,
2013-01-08 10:05:00,34.4,27.6,30.11,SSW,203,7.0,12.0,76,0.00,,---,0.00,VWS V14.01,2013-01-08 16:05:00,
2013-01-08 10:15:00,34.7,27.9,30.10,South,188,9.0,10.0,76,0.00,,---,0.00,VWS V14.01,2013-01-08 16:15:00,
2013-01-08 10:20:00,34.8,28.0,30.10,SSW,193,4.0,10.0,76,0.00,,---,0.00,VWS V14.01,2013-01-08 16:20:00,
2013-01-08 10:25:00,35.0,28.2,30.10,South,183,7.0,7.0,76,0.00,,---,0.00,VWS V14.01,2013-01-08 16:25:00,
2013-01-08 10:30:00,35.1,28.3,30.10,SSW,198,5.0,9.0,76,0.00,,---,0.00,VWS V14.01,2013-01-08 16:30:00,
2013-01-08 10:35:00,35.3,28.5,30.10,SSW,200,5.0,7.0,76,0.00,,---,0.00,VWS V14.01,2013-01-08 16:35:00,
2013-01-08 10:40:00,35.4,28.3,30.10,South,181,2.0,7.0,75,0.00,,---,0.00,VWS V14.01,2013-01-08 16:40:00,
2013-01-08 10:45:00,35.5,28.7,30.10,South,191,4.0,6.0,76,0.00,,---,0.00,VWS V14.01,2013-01-08 16:45:00,
2013-01-08 10:50:00,35.7,28.6,30.10,SSW,192,5.0,7.0,75,0.00,,---,0.00,VWS V14.01,2013-01-08 16:50:00,
2013-01-08 10:55:00,35.8,28.7,30.10,South,184,3.0,5.0,75,0.00,,---,0.00,VWS V14.01,2013-01-08 16:55:00,
2013-01-08 11:05:00,36.3,29.1,30.09,South,184,6.0,12.0,75,0.00,,---,0.00,VWS V14.01,2013-01-08 17:05:00,
2013-01-08 11:15:00,36.8,29.3,30.09,SSW,194,2.0,10.0,74,0.00,,---,0.00,VWS V14.01,2013-01-08 17:15:00,
2013-01-08 11:20:00,37.1,29.6,30.08,South,186,6.0,7.0,74,0.00,,---,0.00,VWS V14.01,2013-01-08 17:20:00,
2013-01-08 11:30:00,37.7,29.8,30.08,South,183,10.0,11.0,73,0.00,,---,0.00,VWS V14.01,2013-01-08 17:30:00,
2013-01-08 11:35:00,37.7,29.5,30.08,SSE,149,3.0,15.0,72,0.00,,---,0.00,VWS V14.01,2013-01-08 17:35:00,
2013-01-08 11:40:00,38.0,30.1,30.07,South,171,6.0,13.0,73,0.00,,---,0.00,VWS V14.01,2013-01-08 17:40:00,
2013-01-08 11:45:00,38.2,30.0,30.07,SSW,195,5.0,9.0,72,0.00,,---,0.00,VWS V14.01,2013-01-08 17:45:00,
2013-01-08 11:50:00,38.2,30.0,30.07,South,178,6.0,13.0,72,0.00,,---,0.00,VWS V14.01,2013-01-08 17:50:00,
2013-01-08 11:55:00,38.2,30.0,30.07,South,191,4.0,12.0,72,0.00,,---,0.00,VWS V14.01,2013-01-08 17:55:00,
2013-01-08 12:00:00,38.3,31.4,30.07,South,183,3.0,9.0,76,0.00,,---,0.00,VWS V14.01,2013-01-08 18:00:00,
2013-01-08 12:05:00,38.5,30.3,30.07,SSE,165,4.0,8.0,72,0.00,,---,0.00,VWS V14.01,2013-01-08 18:05:00,
2013-01-08 12:10:00,38.7,30.1,30.07,SSW,195,9.0,10.0,71,0.00,,---,0.00,VWS V14.01,2013-01-08 18:10:00,
2013-01-08 12:15:00,38.8,30.6,30.07,SSW,206,5.0,10.0,72,0.00,,---,0.00,VWS V14.01,2013-01-08 18:15:00,
2013-01-08 12:20:00,38.8,30.2,30.07,SSW,202,7.0,12.0,71,0.00,,---,0.00,VWS V14.01,2013-01-08 18:20:00,
2013-01-08 12:25:00,39.0,30.4,30.07,SSW,195,5.0,7.0,71,0.00,,---,0.00,VWS V14.01,2013-01-08 18:25:00,
2013-01-08 12:30:00,39.2,30.6,30.06,SW,217,5.0,10.0,71,0.00,,---,0.00,VWS V14.01,2013-01-08 18:30:00,
2013-01-08 12:35:00,39.2,30.6,30.06,South,188,4.0,9.0,71,0.00,,---,0.00,VWS V14.01,2013-01-08 18:35:00,
2013-01-08 12:40:00,39.6,30.6,30.06,South,190,2.0,12.0,70,0.00,,---,0.00,VWS V14.01,2013-01-08 18:40:00,
2013-01-08 12:45:00,39.9,30.9,30.05,SSW,202,3.0,12.0,70,0.00,,---,0.00,VWS V14.01,2013-01-08 18:45:00,
2013-01-08 12:50:00,40.3,31.0,30.05,South,179,5.0,11.0,69,0.00,,---,0.00,VWS V14.01,2013-01-08 18:50:00,
2013-01-08 13:00:00,40.4,31.0,30.05,SSE,163,4.0,11.0,69,0.00,,---,0.00,VWS V14.01,2013-01-08 19:00:00,
2013-01-08 13:10:00,40.5,31.5,30.04,South,179,5.0,9.0,70,0.00,,---,0.00,VWS V14.01,2013-01-08 19:10:00,
2013-01-08 13:20:00,41.1,32.1,30.04,SSW,192,10.0,13.0,70,0.00,,---,0.00,VWS V14.01,2013-01-08 19:20:00,
2013-01-08 13:25:00,41.1,32.1,30.04,SSE,160,3.0,10.0,70,0.00,,---,0.00,VWS V14.01,2013-01-08 19:25:00,
2013-01-08 13:30:00,41.3,31.9,30.04,SSW,195,5.0,11.0,69,0.00,,---,0.00,VWS V14.01,2013-01-08 19:30:00,
2013-01-08 13:35:00,41.5,32.1,30.04,SSE,165,3.0,10.0,69,0.00,,---,0.00,VWS V14.01,2013-01-08 19:35:00,
2013-01-08 13:45:00,41.9,32.1,30.04,SSW,192,10.0,13.0,68,0.00,,---,0.00,VWS V14.01,2013-01-08 19:45:00,
2013-01-08 13:50:00,41.9,31.8,30.04,South,190,4.0,14.0,67,0.00,,---,0.00,VWS V14.01,2013-01-08 19:50:00,
2013-01-08 13:55:00,42.2,32.4,30.04,South,180,5.0,12.0,68,0.00,,---,0.00,VWS V14.01,2013-01-08 19:55:00,
2013-01-08 14:00:00,42.1,32.3,30.04,South,187,3.0,15.0,68,0.00,,---,0.00,VWS V14.01,2013-01-08 20:00:00,
2013-01-08 14:05:00,42.1,32.0,30.04,South,173,11.0,12.0,67,0.00,,---,0.00,VWS V14.01,2013-01-08 20:05:00,
2013-01-08 14:10:00,41.9,32.1,30.04,SSE,159,4.0,11.0,68,0.00,,---,0.00,VWS V14.01,2013-01-08 20:10:00,
2013-01-08 14:15:00,41.8,32.4,30.04,South,179,3.0,12.0,69,0.00,,---,0.00,VWS V14.01,2013-01-08 20:15:00,
2013-01-08 14:20:00,41.8,32.4,30.03,SSW,196,5.0,12.0,69,0.00,,---,0.00,VWS V14.01,2013-01-08 20:20:00,
2013-01-08 14:25:00,42.0,32.6,30.03,SSE,153,4.0,8.0,69,0.00,,---,0.00,VWS V14.01,2013-01-08 20:25:00,
2013-01-08 14:35:00,42.3,32.9,30.03,SSE,157,3.0,13.0,69,0.00,,---,0.00,VWS V14.01,2013-01-08 20:35:00,
2013-01-08 14:40:00,42.5,33.4,30.03,South,186,10.0,10.0,70,0.00,,---,0.00,VWS V14.01,2013-01-08 20:40:00,
2013-01-08 14:50:00,42.2,33.1,30.03,SSE,159,4.0,9.0,70,0.00,,---,0.00,VWS V14.01,2013-01-08 20:50:00,
2013-01-08 14:55:00,42.2,33.1,30.03,SSE,157,6.0,8.0,70,0.00,,---,0.00,VWS V14.01,2013-01-08 20:55:00,
2013-01-08 15:00:00,42.2,33.1,30.03,SSE,161,4.0,6.0,70,0.00,,---,0.00,VWS V14.01,2013-01-08 21:00:00,
2013-01-08 15:05:00,42.2,33.1,30.02,SSE,163,2.0,7.0,70,0.00,,---,0.00,VWS V14.01,2013-01-08 21:05:00,
2013-01-08 15:10:00,42.2,33.1,30.02,South,182,3.0,7.0,70,0.00,,---,0.00,VWS V14.01,2013-01-08 21:10:00,
2013-01-08 15:15:00,42.2,33.1,30.02,SSE,164,2.0,9.0,70,0.00,,---,0.00,VWS V14.01,2013-01-08 21:15:00,
2013-01-08 15:25:00,42.1,33.4,30.02,South,189,2.0,8.0,71,0.00,,---,0.00,VWS V14.01,2013-01-08 21:25:00,
2013-01-08 15:30:00,42.0,33.3,30.02,SSE,159,3.0,9.0,71,0.00,,---,0.00,VWS V14.01,2013-01-08 21:30:00,
2013-01-08 15:35:00,41.8,33.5,30.02,SSE,149,4.0,9.0,72,0.00,,---,0.00,VWS V14.01,2013-01-08 21:35:00,
2013-01-08 15:40:00,41.7,33.3,30.02,SSE,156,3.0,7.0,72,0.00,,---,0.00,VWS V14.01,2013-01-08 21:40:00,
2013-01-08 15:45:00,41.6,33.3,30.02,SSE,159,2.0,9.0,72,0.00,,---,0.00,VWS V14.01,2013-01-08 21:45:00,
2013-01-08 15:55:00,41.1,33.1,30.01,SE,145,4.0,6.0,73,0.00,,---,0.00,VWS V14.01,2013-01-08 21:55:00,
2013-01-08 16:00:00,40.9,32.9,30.01,SSE,149,4.0,9.0,73,0.00,,---,0.00,VWS V14.01,2013-01-08 22:00:00,
2013-01-08 16:10:00,40.9,32.9,30.00,SSE,157,4.0,9.0,73,0.00,,---,0.00,VWS V14.01,2013-01-08 22:10:00,
2013-01-08 16:15:00,40.7,32.7,30.00,SSE,150,6.0,6.0,73,0.00,,---,0.00,VWS V14.01,2013-01-08 22:15:00,
2013-01-08 16:25:00,40.1,32.5,30.00,South,179,3.0,9.0,74,0.00,,---,0.00,VWS V14.01,2013-01-08 22:25:00,
2013-01-08 16:30:00,40.1,32.5,30.01,South,186,2.0,7.0,74,0.00,,---,0.00,VWS V14.01,2013-01-08 22:30:00,
2013-01-08 16:35:00,39.8,32.2,30.01,South,187,2.0,7.0,74,0.00,,---,0.00,VWS V14.01,2013-01-08 22:35:00,
2013-01-08 16:45:00,39.3,31.7,30.01,SSE,156,3.0,7.0,74,0.00,,---,0.00,VWS V14.01,2013-01-08 22:45:00,
2013-01-08 16:50:00,39.2,31.6,30.01,SE,146,5.0,7.0,74,0.00,,---,0.00,VWS V14.01,2013-01-08 22:50:00,
2013-01-08 17:00:00,38.9,31.3,30.00,SE,144,9.0,11.0,74,0.00,,---,0.00,VWS V14.01,2013-01-08 23:00:00,
2013-01-08 17:05:00,38.4,31.2,30.00,SSE,161,6.0,14.0,75,0.00,,---,0.00,VWS V14.01,2013-01-08 23:05:00,
2013-01-08 17:10:00,38.0,31.1,30.00,SE,142,10.0,12.0,76,0.00,,---,0.00,VWS V14.01,2013-01-08 23:10:00,
2013-01-08 17:20:00,37.8,31.2,29.99,SSE,151,9.0,12.0,77,0.00,,---,0.00,VWS V14.01,2013-01-08 23:20:00,
2013-01-08 17:25:00,37.8,31.6,30.00,SSE,167,5.0,13.0,78,0.00,,---,0.00,VWS V14.01,2013-01-08 23:25:00,
2013-01-08 17:30:00,37.9,31.7,29.99,SE,142,11.0,12.0,78,0.00,,---,0.00,VWS V14.01,2013-01-08 23:30:00,
2013-01-08 17:35:00,38.0,31.8,30.00,SSE,157,3.0,11.0,78,0.00,,---,0.00,VWS V14.01,2013-01-08 23:35:00,
2013-01-08 17:40:00,38.0,32.1,29.99,SSE,153,9.0,11.0,79,0.00,,---,0.00,VWS V14.01,2013-01-08 23:40:00,
2013-01-08 17:45:00,38.0,32.1,29.99,SSE,156,5.0,11.0,79,0.00,,---,0.00,VWS V14.01,2013-01-08 23:45:00,
2013-01-08 17:55:00,37.9,32.0,30.00,SSE,154,5.0,9.0,79,0.00,,---,0.00,VWS V14.01,2013-01-08 23:55:00,
2013-01-08 18:00:00,38.1,32.2,30.00,SSE,161,9.0,13.0,79,0.00,,---,0.00,VWS V14.01,2013-01-09 00:00:00,
2013-01-08 18:10:00,38.3,32.4,30.00,South,182,5.0,11.0,79,0.00,,---,0.00,VWS V14.01,2013-01-09 00:10:00,
2013-01-08 18:15:00,38.4,32.2,30.00,South,189,5.0,9.0,78,0.00,,---,0.00,VWS V14.01,2013-01-09 00:15:00,
2013-01-08 18:20:00,38.5,32.2,30.00,South,179,5.0,10.0,78,0.00,,---,0.00,VWS V14.01,2013-01-09 00:20:00,
2013-01-08 18:25:00,38.6,32.0,30.00,SSE,163,4.0,13.0,77,0.00,,---,0.00,VWS V14.01,2013-01-09 00:25:00,
2013-01-08 18:30:00,38.5,31.9,30.00,SSE,148,6.0,10.0,77,0.00,,---,0.00,VWS V14.01,2013-01-09 00:30:00,
2013-01-08 18:35:00,38.4,31.8,30.00,SSE,164,4.0,7.0,77,0.00,,---,0.00,VWS V14.01,2013-01-09 00:35:00,
2013-01-08 18:40:00,38.3,31.7,30.00,South,177,5.0,9.0,77,0.00,,---,0.00,VWS V14.01,2013-01-09 00:40:00,
2013-01-08 18:45:00,38.3,31.7,30.00,SSE,160,5.0,10.0,77,0.00,,---,0.00,VWS V14.01,2013-01-09 00:45:00,
2013-01-08 18:50:00,38.3,31.7,30.00,SSE,167,5.0,12.0,77,0.00,,---,0.00,VWS V14.01,2013-01-09 00:50:00,
2013-01-08 18:55:00,38.3,31.7,29.99,SE,143,7.0,11.0,77,0.00,,---,0.00,VWS V14.01,2013-01-09 00:55:00,
2013-01-08 19:05:00,38.4,31.8,30.00,SSE,148,4.0,11.0,77,0.00,,---,0.00,VWS V14.01,2013-01-09 01:05:00,
2013-01-08 19:10:00,38.4,31.8,30.01,South,182,3.0,10.0,77,0.00,,---,0.00,VWS V14.01,2013-01-09 01:10:00,
2013-01-08 19:15:00,38.3,32.0,30.00,West,263,7.0,10.0,78,0.00,,---,0.00,VWS V14.01,2013-01-09 01:15:00,
2013-01-08 19:20:00,38.2,32.0,30.00,SSE,153,4.0,9.0,78,0.00,,---,0.00,VWS V14.01,2013-01-09 01:20:00,
2013-01-08 19:25:00,38.1,31.9,30.01,SSE,167,4.0,11.0,78,0.00,,---,0.00,VWS V14.01,2013-01-09 01:25:00,
2013-01-08 19:30:00,38.1,32.2,30.02,South,191,6.0,11.0,79,0.00,,---,0.00,VWS V14.01,2013-01-09 01:30:00,
2013-01-08 19:40:00,38.3,32.0,30.02,SSW,198,6.0,9.0,78,0.00,,---,0.00,VWS V14.01,2013-01-09 01:40:00,
2013-01-08 19:45:00,38.4,32.2,30.02,SSW,194,2.0,7.0,78,0.00,,---,0.00,VWS V14.01,2013-01-09 01:45:00,
2013-01-08 19:50:00,38.4,32.2,30.02,South,184,2.0,9.0,78,0.00,,---,0.00,VWS V14.01,2013-01-09 01:50:00,
2013-01-08 20:00:00,38.2,32.0,30.02,South,178,3.0,11.0,78,0.00,,---,0.00,VWS V14.01,2013-01-09 02:00:00,
2013-01-08 20:10:00,37.7,31.5,30.02,SSW,193,5.0,12.0,78,0.00,,---,0.00,VWS V14.01,2013-01-09 02:10:00,
2013-01-08 20:20:00,37.4,31.2,30.02,South,187,5.0,11.0,78,0.00,,---,0.00,VWS V14.01,2013-01-09 02:20:00,
2013-01-08 20:25:00,37.4,31.2,30.02,South,171,3.0,10.0,78,0.00,,---,0.00,VWS V14.01,2013-01-09 02:25:00,
2013-01-08 20:35:00,37.4,31.2,30.02,South,185,3.0,12.0,78,0.00,,---,0.00,VWS V14.01,2013-01-09 02:35:00,
2013-01-08 20:40:00,37.4,31.2,30.02,South,178,1.0,9.0,78,0.00,,---,0.00,VWS V14.01,2013-01-09 02:40:00,
2013-01-08 20:50:00,37.3,31.1,30.02,South,182,5.0,9.0,78,0.00,,---,0.00,VWS V14.01,2013-01-09 02:50:00,
2013-01-08 20:55:00,37.4,31.2,30.02,South,179,3.0,6.0,78,0.00,,---,0.00,VWS V14.01,2013-01-09 02:55:00,
2013-01-08 21:00:00,37.6,31.1,30.02,South,187,4.0,12.0,77,0.00,,---,0.00,VWS V14.01,2013-01-09 03:00:00,
2013-01-08 21:10:00,37.8,31.2,30.02,SSW,205,5.0,11.0,77,0.00,,---,0.00,VWS V14.01,2013-01-09 03:10:00,
2013-01-08 21:20:00,38.0,31.1,30.02,SSW,213,10.0,12.0,76,0.00,,---,0.00,VWS V14.01,2013-01-09 03:20:00,
2013-01-08 21:25:00,38.0,31.1,30.01,South,184,3.0,16.0,76,0.00,,---,0.00,VWS V14.01,2013-01-09 03:25:00,
2013-01-08 21:35:00,38.1,31.2,30.01,South,187,3.0,6.0,76,0.00,,---,0.00,VWS V14.01,2013-01-09 03:35:00,
2013-01-08 21:45:00,38.0,31.4,30.01,SW,215,6.0,7.0,77,0.00,,---,0.00,VWS V14.01,2013-01-09 03:45:00,
2013-01-08 21:55:00,37.9,31.4,30.01,SSW,199,4.0,11.0,77,0.00,,---,0.00,VWS V14.01,2013-01-09 03:55:00,
2013-01-08 22:00:00,37.9,31.4,30.01,South,182,7.0,9.0,77,0.00,,---,0.00,VWS V14.01,2013-01-09 04:00:00,
2013-01-08 22:05:00,37.9,31.4,30.01,SSW,198,10.0,10.0,77,0.00,,---,0.00,VWS V14.01,2013-01-09 04:05:00,
2013-01-08 22:15:00,38.0,31.4,30.01,SSW,213,3.0,9.0,77,0.00,,---,0.00,VWS V14.01,2013-01-09 04:15:00,
2013-01-08 22:20:00,38.0,31.4,30.01,WSW,237,6.0,11.0,77,0.00,,---,0.00,VWS V14.01,2013-01-09 04:20:00,
2013-01-08 22:25:00,38.2,31.6,30.01,South,188,6.0,9.0,77,0.00,,---,0.00,VWS V14.01,2013-01-09 04:25:00,
2013-01-08 22:30:00,38.2,31.6,30.02,SSW,209,2.0,10.0,77,0.00,,---,0.00,VWS V14.01,2013-01-09 04:30:00,
2013-01-08 22:40:00,38.2,31.6,30.01,SSW,201,10.0,10.0,77,0.00,,---,0.00,VWS V14.01,2013-01-09 04:40:00,
2013-01-08 22:45:00,38.3,31.7,30.01,South,186,9.0,12.0,77,0.00,,---,0.00,VWS V14.01,2013-01-09 04:45:00,
2013-01-08 22:50:00,38.4,31.5,30.01,SSW,196,6.0,12.0,76,0.00,,---,0.00,VWS V14.01,2013-01-09 04:50:00,
2013-01-08 23:00:00,38.6,31.4,30.01,SSW,196,6.0,15.0,75,0.00,,---,0.00,VWS V14.01,2013-01-09 05:00:00,
2013-01-08 23:10:00,38.7,31.5,30.02,South,191,4.0,12.0,75,0.00,,---,0.00,VWS V14.01,2013-01-09 05:10:00,
2013-01-08 23:15:00,38.7,31.5,30.02,SSW,195,4.0,13.0,75,0.00,,---,0.00,VWS V14.01,2013-01-09 05:15:00,
2013-01-08 23:20:00,38.7,31.5,30.02,SSW,205,6.0,12.0,75,0.00,,---,0.00,VWS V14.01,2013-01-09 05:20:00,
2013-01-08 23:25:00,38.6,31.4,30.02,SSW,194,5.0,15.0,75,0.00,,---,0.00,VWS V14.01,2013-01-09 05:25:00,
2013-01-08 23:30:00,38.6,31.4,30.02,SSW,196,4.0,14.0,75,0.00,,---,0.00,VWS V14.01,2013-01-09 05:30:00,
2013-01-08 23:35:00,38.5,31.3,30.02,South,189,8.0,15.0,75,0.00,,---,0.00,VWS V14.01,2013-01-09 05:35:00,
2013-01-08 23:40:00,38.5,31.3,30.03,SW,218,4.0,10.0,75,0.00,,---,0.00,VWS V14.01,2013-01-09 05:40:00,
2013-01-08 23:45:00,38.3,31.1,30.02,WSW,241,6.0,10.0,75,0.00,,---,0.00,VWS V14.01,2013-01-09 05:45:00,
2013-01-08 23:50:00,38.3,31.1,30.02,South,178,7.0,12.0,75,0.00,,---,0.00,VWS V14.01,2013-01-09 05:50:00,